Location: Sternwarte ZA, Rosenfeld-Brittheim
(48.2889°N, 8.6789°E)
Time: 07:41:44
(UTC+02:00)

ISS - Pass Details

Date: 23 May 2021
Orbit: 417 x 422 km, 51.6° (Epoch: 18 June)

Event Time Altitude Azimuth Distance (km) Brightness Sun altitude
Rises 00:33:07 0° 292° (WNW) 2,371 0.5 -20.3°
Reaches altitude 10° 00:35:13 10° 291° (WNW) 1,505 -0.5 -20.3°
Enters shadow 00:38:03 58° 272° (W) 498 -3.4 -20.4°
